User: anonymous   Login
Location: Demmingen
(48.6757°N, 10.4375°E)
Time: 19:19:05
(UTC+00:00)
Language:

Okean 1-7 - Orbit

View from above orbital plane
View from above orbital plane
View from above satellite
View from above satellite

Ground track
Ground track

The orbit data is extracted from the following two-line orbital elements,

1 23317U 94066A   25199.51167635  .00001415  00000-0  12521-3 0  9996
2 23317  82.5325 213.3692 0015601 321.0819  38.9278 14.95497811665436
Epoch (UTC): 18 July 2025 12:16:48
Eccentricity: 0.0015601
inclination: 82.5325°
perigee height: 570 km
apogee height: 591 km
right ascension of ascending node: 213.3692°
argument of perigee: 321.0819°
revolutions per day: 14.95497811
mean anomaly at epoch: 38.9278°
orbit number at epoch: 66543

The dashed part of the orbit path shows where the satellite is in the earth's shadow,  

DLR